Location: Sungai Igah
(2.7333°N, 114.2500°E)
Time: 19:36:47
(UTC+00:00)

ARIANE 5 R/B - Pass Details

Date: 14 June 2021
Orbit: 591 x 35535 km, 5.5° (Epoch: 26 July)

Event Time Altitude Azimuth Distance (km) Brightness Sun altitude
Exits shadow 21:16:24 14° 258° (WSW) 6,366 7.0 -14.2°
Maximum altitude 21:28:51 58° 183° (S) 1,327 4.1 -11.4°
Drops below altitude 10° 21:32:59 10° 102° (ESE) 2,169 6.2 -10.5°
Sets 21:34:33 0° 97° (E) 2,887 7.1 -10.1°
